QPF
0.00 0.00 0.00 0.00 0.00 0.00 0.00 0.00 0.00 0.00 0.00 0.01 0.03 0.04 0.03 0.04 0.06 0.10 0.15 0.19 0.21 0.16 0.15 0.13 0.12 0.14 0.09 0.03 0.02 0.02 0.04 0.05 0.06 0.03 0.00 0.00 0.00 0.00 0.00 0.00 0.00 0.00 0.00
0.00 0.00 0.00 0.00 0.00 0.00 0.00 0.00 0.00 0.00 0.00 0.00 0.00 0.04 0.07 0.04 0.07 0.08 0.07 0.08 0.08 0.16 0.19 0.18 0.21 0.23 0.20 0.10 0.06 0.04 0.03 0.02 0.02 0.01 0.00 0.00 0.00 0.00 0.00 0.00 0.00 0.00 0.00
0.00 0.00 0.00 0.00 0.00 0.00 0.00 0.00 0.00 0.00 0.00 0.00 0.01 0.07 0.01 0.05 0.04 0.01 0.02 0.02 0.05 0.09 0.06 0.07 0.10 0.12 0.10 0.08 0.06 0.03 0.01 0.01 0.01 0.00 0.00 0.00 0.00 0.00 0.00 0.00 0.00 0.00 0.00
0.00 0.00 0.00 0.00 0.00 0.00 0.00 0.00 0.00 0.00 0.00 0.01 0.01 0.07 0.04 0.02 0.02 0.03 0.03 0.02 0.01 0.00 0.00 0.01 0.01 0.01 0.01 0.02 0.02 0.02 0.01 0.00 0.00 0.00 0.00 0.00 0.00 0.00 0.00 0.00 0.00 0.00 0.00
0.00 0.00 0.00 0.00 0.00 0.00 0.00 0.00 0.00 0.00 0.00 0.02 0.03 0.08 0.03 0.02 0.06 0.05 0.01 0.00 0.00 0.00 0.00 0.00 0.00 0.00 0.00 0.00 0.00 0.00 0.00 0.00 0.00 0.00 0.00 0.00 0.00 0.00 0.00 0.00 0.00 0.00 0.00
0.00 0.00 0.00 0.00 0.00 0.00 0.00 0.00 0.00 0.00 0.01 0.02 0.02 0.06 0.07 0.07 0.05 0.04 0.01 0.00 0.00 0.00 0.00 0.00 0.00 0.00 0.00 0.00 0.00 0.00 0.00 0.00 0.00 0.00 0.00 0.00 0.00 0.00 0.00 0.00 0.00 0.00 0.00
0.00 0.00 0.00 0.00 0.00 0.00 0.00 0.00 0.00 0.00 0.00 0.01 0.02 0.11 0.09 0.04 0.04 0.02 0.01 0.00 0.00 0.00 0.00 0.00 0.00 0.00 0.00 0.00 0.00 0.00 0.00 0.00 0.00 0.00 0.00 0.00 0.00 0.00 0.00 0.00 0.00 0.00 0.00
0.00 0.00 0.00 0.00 0.00 0.00 0.00 0.00 0.00 0.00 0.01 0.01 0.07 0.11 0.10 0.07 0.05 0.02 0.01 0.01 0.00 0.01 0.00 0.00 0.00 0.00 0.00 0.00 0.00 0.00 0.00 0.00 0.00 0.00 0.00 0.00 0.00 0.00 0.00 0.00 0.00 0.00 0.00
0.00 0.00 0.00 0.00 0.00 0.00 0.00 0.00 0.00 0.00 0.01 0.04 0.10 0.12 0.06 0.04 0.03 0.01 0.00 0.01 0.00 0.00 0.00 0.00 0.00 0.00 0.00 0.00 0.00 0.00 0.00 0.00 0.00 0.00 0.00 0.00 0.00 0.00 0.00 0.00 0.00 0.00 0.00
0.00 0.00 0.00 0.00 0.00 0.00 0.00 0.00 0.00 0.00 0.03 0.11 0.09 0.05 0.01 0.03 0.02 0.01 0.00 0.01 0.01 0.00 0.00 0.00 0.00 0.00 0.00 0.00 0.00 0.00 0.00 0.00 0.00 0.00 0.00 0.00 0.00 0.00 0.00 0.00 0.00 0.00 0.00
0.00 0.00 0.00 0.00 0.00 0.00 0.00 0.00 0.00 0.02 0.07 0.09 0.08 0.04 0.02 0.02 0.01 0.00 0.00 0.01 0.01 0.00 0.00 0.00 0.00 0.00 0.00 0.00 0.00 0.00 0.00 0.00 0.00 0.00 0.00 0.00 0.00 0.00 0.00 0.00 0.00 0.00 0.00
0.00 0.00 0.00 0.00 0.01 0.00 0.00 0.00 0.00 0.05 0.06 0.03 0.03 0.02 0.01 0.00 0.00 0.00 0.00 0.00 0.00 0.00 0.00 0.00 0.00 0.00 0.00 0.00 0.00 0.00 0.00 0.00 0.00 0.00 0.00 0.00 0.00 0.00 0.00 0.00 0.00 0.00 0.00
0.00 0.00 0.00 0.01 0.01 0.00 0.00 0.00 0.00 0.04 0.02 0.01 0.01 0.00 0.00 0.00 0.00 0.00 0.00 0.00 0.00 0.00 0.00 0.00 0.00 0.00 0.00 0.00 0.00 0.00 0.00 0.00 0.00 0.00 0.00 0.00 0.00 0.00 0.00 0.00 0.00 0.00 0.00
0.00 0.00 0.00 0.00 0.00 0.00 0.01 0.00 0.00 0.01 0.01 0.01 0.00 0.00 0.00 0.00 0.00 0.00 0.00 0.00 0.00 0.00 0.00 0.00 0.00 0.00 0.00 0.00 0.00 0.00 0.00 0.00 0.00 0.00 0.00 0.00 0.00 0.00 0.00 0.00 0.00 0.00 0.00
0.00 0.00 0.00 0.00 0.00 0.00 0.00 0.00 0.00 0.00 0.01 0.01 0.00 0.00 0.00 0.00 0.00 0.00 0.00 0.00 0.00 0.00 0.00 0.00 0.00 0.00 0.00 0.00 0.00 0.00 0.00 0.00 0.00 0.00 0.00 0.00 0.00 0.00 0.00 0.00 0.00 0.00 0.00
0.00 0.00 0.00 0.00 0.00 0.00 0.00 0.00 0.00 0.00 0.00 0.00 0.00 0.00 0.00 0.00 0.00 0.00 0.00 0.00 0.00 0.00 0.00 0.00 0.00 0.00 0.00 0.00 0.00 0.00 0.00 0.00 0.00 0.00 0.00 0.00 0.00 0.00 0.00 0.00 0.00 0.00 0.00
0.00 0.00 0.00 0.00 0.00 0.00 0.00 0.00 0.00 0.00 0.00 0.00 0.00 0.00 0.00 0.00 0.00 0.00 0.00 0.00 0.00 0.00 0.00 0.00 0.00 0.00 0.00 0.00 0.00 0.00 0.00 0.00 0.00 0.00 0.00 0.00 0.00 0.00 0.00 0.00 0.00 0.00 0.00
0.00 0.00 0.00 0.00 0.00 0.00 0.00 0.00 0.00 0.00 0.00 0.00 0.00 0.00 0.00 0.00 0.00 0.00 0.00 0.00 0.00 0.00 0.00 0.00 0.00 0.00 0.00 0.00 0.00 0.00 0.00 0.00 0.00 0.00 0.00 0.00 0.00 0.00 0.00 0.00 0.00 0.00 0.00
0.00 0.00 0.00 0.00 0.00 0.00 0.00 0.00 0.00 0.00 0.00 0.00 0.00 0.00 0.00 0.00 0.00 0.00 0.00 0.00 0.00 0.00 0.00 0.00 0.00 0.00 0.00 0.00 0.00 0.00 0.00 0.00 0.00 0.00 0.00 0.00 0.00 0.00 0.00 0.00 0.00 0.00 0.00
0.00 0.00 0.00 0.00 0.00 0.00 0.00 0.00 0.00 0.00 0.00 0.00 0.00 0.00 0.00 0.00 0.00 0.00 0.00 0.00 0.00 0.00 0.00 0.00 0.00 0.00 0.00 0.00 0.00 0.00 0.00 0.00 0.00 0.00 0.00 0.00 0.00 0.00 0.00 0.00 0.00 0.00 0.00
0.00 0.00 0.00 0.00 0.00 0.00 0.00 0.00 0.00 0.00 0.00 0.00 0.00 0.00 0.00 0.00 0.00 0.00 0.00 0.00 0.00 0.00 0.00 0.00 0.00 0.00 0.00 0.00 0.00 0.00 0.00 0.00 0.00 0.00 0.00 0.00 0.00 0.00 0.00 0.00 0.00 0.00 0.00
0.00 0.00 0.00 0.00 0.00 0.00 0.00 0.00 0.00 0.00 0.00 0.00 0.00 0.00 0.00 0.00 0.00 0.00 0.00 0.00 0.00 0.00 0.00 0.00 0.00 0.00 0.00 0.00 0.00 0.00 0.00 0.00 0.00 0.00 0.00 0.00 0.00 0.00 0.00 0.00 0.00 0.00 0.00
0.00 0.00 0.00 0.00 0.00 0.00 0.00 0.00 0.00 0.00 0.00 0.00 0.00 0.00 0.00 0.00 0.00 0.00 0.00 0.00 0.00 0.00 0.00 0.00 0.00 0.00 0.00 0.00 0.00 0.00 0.00 0.00 0.00 0.00 0.00 0.00 0.00 0.00 0.00 0.00 0.00 0.00 0.00
0.00 0.00 0.00 0.00 0.00 0.00 0.00 0.00 0.00 0.00 0.00 0.00 0.00 0.00 0.00 0.00 0.00 0.00 0.00 0.00 0.00 0.00 0.00 0.00 0.00 0.00 0.00 0.00 0.00 0.00 0.00 0.00 0.00 0.00 0.00 0.00 0.00 0.00 0.00 0.00 0.00 0.00 0.00
0.00 0.00 0.00 0.00 0.00 0.00 0.00 0.00 0.00 0.00 0.00 0.00 0.00 0.00 0.00 0.00 0.00 0.00 0.00 0.00 0.00 0.00 0.00 0.00 0.00 0.00 0.00 0.00 0.00 0.00 0.00 0.00 0.00 0.00 0.00 0.00 0.00 0.00 0.00 0.00 0.00 0.00 0.00
0.00 0.00 0.00 0.00 0.00 0.00 0.00 0.00 0.00 0.00 0.00 0.00 0.00 0.00 0.00 0.00 0.00 0.00 0.00 0.00 0.00 0.00 0.00 0.00 0.00 0.00 0.00 0.00 0.00 0.00 0.00 0.00 0.00 0.00 0.00 0.00 0.00 0.00 0.00 0.00 0.00 0.00 0.00
MSLP
1010.40 1010.13 1009.82 1009.31 1008.58 1008.04 1007.55 1006.75 1005.90 1005.28 1004.82 1004.38 1004.18 1004.03 1003.47 1003.21 1003.03 1003.30 1003.61 1003.33 1003.43 1003.44 1003.80 1004.38 1005.06 1005.33 1005.27 1005.86 1006.11 1006.61 1007.46 1008.09 1009.33 1010.74 1010.85 1011.05 1011.45 1011.83 1012.07 1012.50 1012.51 1012.56 1011.98
1010.07 1009.77 1009.59 1008.91 1008.40 1007.94 1007.14 1006.42 1005.71 1005.11 1004.39 1004.00 1003.65 1003.51 1003.22 1002.73 1002.90 1002.94 1003.29 1003.59 1003.97 1004.39 1004.56 1004.58 1004.84 1005.57 1006.57 1007.43 1007.21 1007.14 1006.99 1007.73 1008.20 1009.74 1010.70 1011.25 1011.98 1011.86 1012.46 1012.48 1012.81 1012.93 1011.95
1009.66 1009.38 1009.02 1008.43 1008.10 1007.61 1006.95 1006.17 1005.51 1004.84 1004.10 1003.83 1003.55 1003.22 1003.04 1002.86 1002.96 1003.33 1003.58 1003.83 1004.06 1004.47 1004.77 1005.01 1004.98 1005.64 1006.22 1006.96 1007.97 1008.33 1009.02 1008.73 1008.85 1009.38 1011.27 1012.54 1012.22 1012.59 1013.04 1012.66 1013.83 1013.20 1012.41
1009.11 1008.75 1008.43 1007.98 1007.57 1007.15 1006.56 1005.90 1005.41 1004.59 1004.04 1003.51 1003.31 1003.18 1003.07 1003.08 1003.21 1003.62 1004.02 1004.50 1005.09 1005.79 1006.11 1006.32 1006.42 1006.68 1006.93 1007.13 1007.92 1008.68 1009.87 1010.32 1010.36 1011.39 1013.05 1013.53 1013.26 1013.72 1013.41 1013.39 1014.45 1013.44 1013.44
1008.63 1008.25 1007.75 1007.35 1006.92 1006.58 1006.08 1005.60 1005.00 1004.21 1003.64 1003.12 1003.12 1003.36 1003.40 1003.46 1003.74 1004.25 1004.63 1005.15 1005.76 1006.45 1006.92 1007.35 1007.68 1007.83 1008.05 1007.98 1007.71 1009.06 1010.33 1011.01 1011.58 1014.31 1013.47 1014.24 1014.45 1014.38 1014.29 1014.41 1014.38 1014.18 1014.06
1007.97 1007.67 1007.31 1006.93 1006.54 1006.17 1005.85 1005.23 1004.72 1003.94 1003.30 1002.94 1003.21 1003.70 1003.69 1004.03 1004.46 1004.99 1005.27 1006.02 1006.56 1006.95 1007.45 1008.29 1008.76 1008.85 1009.01 1009.09 1009.37 1009.57 1010.27 1011.26 1012.59 1014.12 1013.62 1014.62 1014.67 1014.80 1014.78 1014.75 1014.55 1014.71 1014.83
1007.36 1006.94 1006.64 1006.24 1005.84 1005.79 1005.48 1004.99 1004.43 1003.80 1003.16 1003.23 1003.75 1004.17 1004.88 1005.29 1005.43 1005.73 1006.43 1007.11 1007.73 1008.31 1008.78 1009.16 1009.61 1010.07 1010.62 1010.06 1010.08 1010.99 1010.56 1012.01 1012.35 1012.81 1014.21 1014.66 1014.58 1014.73 1015.03 1014.83 1014.79 1015.00 1015.04
1006.40 1006.14 1006.08 1005.78 1005.53 1005.47 1005.07 1004.62 1004.20 1003.88 1003.54 1004.13 1004.64 1005.13 1005.78 1006.50 1006.23 1006.46 1007.20 1008.06 1008.76 1009.48 1009.83 1010.02 1010.57 1011.22 1011.83 1011.70 1010.77 1011.66 1012.07 1012.73 1013.22 1013.76 1013.45 1013.89 1014.39 1014.55 1014.77 1014.79 1014.72 1014.69 1014.85
1005.96 1005.72 1005.60 1005.40 1005.24 1005.07 1004.72 1004.45 1004.28 1004.22 1004.45 1004.98 1005.66 1006.17 1006.60 1007.45 1007.29 1007.30 1007.57 1008.77 1009.79 1010.31 1010.84 1011.24 1011.56 1011.68 1011.87 1011.87 1011.67 1012.33 1013.36 1014.13 1014.16 1013.88 1013.79 1014.36 1014.53 1014.57 1014.74 1015.07 1014.98 1014.47 1015.05
1005.26 1005.01 1004.95 1004.86 1004.79 1004.57 1004.51 1004.41 1004.53 1004.67 1005.35 1006.01 1006.84 1007.42 1007.73 1008.08 1008.64 1008.27 1008.48 1009.28 1010.22 1011.14 1011.72 1011.94 1012.22 1011.79 1012.56 1012.62 1013.04 1013.28 1013.76 1014.71 1014.86 1014.67 1014.75 1014.81 1014.71 1014.89 1014.90 1015.25 1014.99 1014.86 1015.34
1004.89 1004.65 1004.34 1004.37 1004.28 1004.17 1004.26 1004.54 1004.81 1005.38 1006.21 1007.09 1008.03 1008.70 1008.72 1009.24 1009.74 1009.49 1009.82 1010.21 1010.75 1011.63 1012.41 1012.73 1012.70 1012.73 1013.38 1013.57 1013.88 1014.38 1014.09 1014.95 1015.69 1015.24 1015.40 1015.28 1015.59 1015.60 1015.68 1015.65 1015.24 1015.10 1015.30
1004.28 1004.13 1003.99 1003.71 1003.62 1003.55 1004.17 1004.90 1005.33 1006.08 1007.04 1008.28 1008.91 1009.62 1010.55 1010.86 1010.68 1010.76 1010.71 1011.01 1011.73 1012.26 1013.28 1013.83 1013.86 1013.36 1013.89 1013.99 1014.49 1014.71 1014.64 1015.44 1016.25 1015.87 1015.48 1016.66 1016.60 1016.30 1016.20 1016.23 1015.75 1015.33 1015.05
1003.79 1003.65 1003.38 1003.40 1003.16 1003.86 1004.41 1005.27 1006.16 1006.89 1007.84 1009.15 1009.45 1010.58 1011.50 1011.84 1012.07 1011.93 1011.86 1012.05 1012.71 1013.19 1013.17 1014.27 1014.63 1014.55 1014.49 1014.77 1014.95 1015.25 1015.52 1016.05 1016.97 1016.01 1016.90 1017.30 1016.98 1016.76 1016.46 1016.39 1015.79 1015.35 1015.23
1003.15 1003.19 1003.22 1003.33 1004.05 1004.79 1005.54 1006.19 1006.85 1007.73 1008.41 1009.34 1010.46 1011.36 1012.08 1012.57 1012.88 1013.09 1013.20 1013.44 1013.68 1013.75 1014.45 1015.11 1015.45 1015.46 1015.35 1015.85 1016.16 1016.44 1016.68 1016.88 1017.11 1017.57 1017.74 1017.37 1017.10 1016.98 1016.61 1016.56 1016.13 1015.71 1015.87
1002.67 1003.27 1003.82 1004.70 1005.26 1006.17 1006.96 1007.68 1008.16 1008.93 1009.00 1009.56 1010.78 1011.34 1011.91 1012.86 1013.89 1014.17 1014.26 1014.46 1014.24 1014.34 1015.23 1015.65 1016.04 1016.04 1016.61 1017.13 1017.13 1017.34 1017.62 1017.76 1017.88 1018.06 1017.90 1017.80 1017.97 1017.34 1017.32 1016.99 1016.59 1016.41 1016.31
1003.73 1004.36 1005.16 1005.77 1006.51 1007.22 1007.91 1009.21 1010.12 1010.32 1010.75 1011.22 1011.59 1012.01 1013.00 1013.73 1014.48 1014.79 1015.12 1015.15 1015.40 1015.78 1016.16 1016.41 1016.84 1017.26 1017.59 1017.81 1018.07 1018.41 1018.57 1018.47 1018.68 1018.39 1018.52 1018.52 1018.10 1018.01 1017.98 1017.66 1016.99 1016.67 1016.82
1004.81 1005.70 1006.43 1006.90 1007.60 1008.22 1009.02 1009.66 1010.83 1012.51 1012.56 1012.89 1013.21 1013.75 1014.35 1014.82 1015.43 1015.63 1015.61 1015.81 1015.82 1016.22 1016.77 1017.28 1017.73 1018.13 1018.49 1018.83 1019.12 1019.38 1019.54 1019.20 1019.14 1019.30 1019.01 1018.94 1018.56 1018.58 1018.84 1018.15 1017.58 1017.18 1017.19
1006.24 1006.91 1007.45 1008.16 1008.68 1009.38 1010.01 1010.75 1011.36 1012.41 1013.49 1014.70 1015.10 1015.28 1015.57 1015.83 1016.20 1016.42 1016.54 1016.49 1016.62 1017.29 1017.57 1018.30 1018.89 1019.27 1019.50 1019.65 1019.96 1020.00 1020.19 1019.84 1019.73 1019.88 1019.60 1019.64 1019.64 1019.31 1018.92 1018.71 1018.35 1017.86 1017.68
1007.46 1008.21 1008.69 1009.27 1009.97 1010.43 1011.18 1011.97 1012.50 1013.34 1014.36 1015.22 1015.92 1016.33 1016.60 1016.62 1016.63 1016.82 1017.10 1017.40 1017.74 1018.37 1018.64 1019.15 1019.74 1020.20 1020.46 1020.71 1021.02 1021.29 1021.24 1020.46 1020.15 1020.58 1020.81 1020.58 1020.06 1019.57 1019.62 1019.32 1018.74 1018.47 1018.30
1009.08 1009.47 1009.74 1010.40 1011.26 1011.94 1012.47 1013.01 1013.70 1014.36 1014.99 1015.75 1016.47 1016.99 1017.06 1017.08 1017.64 1018.21 1018.53 1018.57 1018.77 1019.39 1019.91 1020.50 1020.91 1021.33 1021.65 1021.79 1021.67 1021.47 1021.32 1021.47 1021.50 1021.78 1021.49 1020.93 1020.57 1020.46 1020.15 1019.89 1019.56 1019.26 1019.11
1010.37 1010.99 1011.16 1011.71 1012.52 1013.21 1013.76 1014.31 1014.85 1015.36 1016.19 1017.09 1017.58 1017.89 1018.04 1018.31 1018.82 1019.25 1019.48 1019.76 1020.08 1020.68 1021.12 1021.55 1022.11 1022.39 1022.46 1022.49 1022.52 1022.56 1022.27 1022.37 1022.47 1022.25 1022.04 1021.90 1021.46 1021.05 1020.67 1020.27 1020.17 1019.97 1019.86
1011.54 1012.21 1012.76 1013.15 1013.70 1014.31 1014.80 1015.30 1015.99 1016.62 1017.25 1017.70 1018.23 1018.59 1018.79 1019.19 1019.75 1020.17 1020.65 1021.13 1021.59 1021.86 1022.23 1022.53 1023.10 1023.35 1023.21 1023.19 1023.23 1023.25 1023.33 1023.33 1023.25 1023.15 1022.71 1022.25 1021.85 1021.60 1021.30 1021.30 1021.19 1021.02 1020.75
1012.66 1013.13 1013.97 1014.56 1014.90 1015.39 1016.02 1016.64 1017.17 1017.61 1018.01 1018.46 1018.97 1019.46 1019.87 1020.48 1021.01 1021.48 1021.96 1022.34 1022.68 1023.08 1023.41 1023.63 1023.90 1024.19 1024.24 1024.20 1024.09 1023.94 1023.98 1024.06 1023.95 1023.63 1023.22 1022.88 1022.54 1022.46 1022.38 1022.32 1022.21 1021.94 1021.68
1013.55 1013.98 1014.61 1015.21 1015.86 1016.46 1016.96 1017.38 1017.81 1018.30 1018.84 1019.40 1019.88 1020.44 1021.00 1021.55 1022.03 1022.55 1023.04 1023.49 1023.81 1024.29 1024.62 1024.76 1024.85 1024.86 1024.63 1024.37 1024.41 1024.55 1024.46 1024.29 1024.06 1023.78 1023.41 1023.31 1023.32 1023.22 1023.17 1023.15 1022.93 1022.55 1022.33
1014.65 1015.23 1015.79 1016.19 1016.63 1017.07 1017.55 1018.08 1018.63 1019.17 1019.69 1020.17 1020.80 1021.38 1021.98 1022.44 1022.96 1023.49 1023.96 1024.44 1024.86 1025.12 1025.40 1025.54 1025.46 1025.16 1025.03 1025.25 1025.18 1024.87 1024.64 1024.47 1024.23 1023.97 1023.84 1023.80 1023.97 1024.04 1023.94 1023.73 1023.44 1023.16 1022.83
1015.69 1016.14 1016.43 1016.92 1017.40 1017.92 1018.45 1018.95 1019.46 1019.96 1020.49 1021.07 1021.70 1022.23 1022.72 1023.32 1023.97 1024.52 1024.99 1025.32 1025.62 1025.91 1026.01 1025.88 1025.80 1025.84 1025.89 1025.82 1025.74 1025.55 1025.27 1025.03 1024.83 1024.66 1024.45 1024.40 1024.51 1024.46 1024.36 1024.18 1024.00 1023.81 1023.54
Thickness
5580 5583 5585 5588 5593 5597 5600 5609 5617 5623 5629 5636 5641 5646 5655 5659 5662 5660 5658 5663 5661 5664 5663 5662 5662 5666 5671 5667 5669 5668 5661 5654 5648 5636 5635 5637 5632 5624 5623 5614 5610 5606 5609
5569 5571 5570 5575 5578 5581 5588 5595 5603 5607 5617 5624 5630 5636 5643 5652 5654 5655 5655 5651 5648 5645 5646 5648 5650 5646 5641 5639 5649 5654 5657 5652 5647 5637 5630 5623 5616 5619 5610 5607 5599 5595 5603
5557 5557 5559 5563 5566 5570 5576 5583 5589 5596 5604 5611 5618 5625 5631 5640 5644 5643 5643 5641 5638 5636 5636 5635 5639 5633 5631 5631 5628 5624 5627 5632 5633 5630 5613 5601 5606 5601 5597 5598 5586 5589 5593
5545 5546 5549 5552 5556 5560 5565 5570 5574 5583 5591 5602 5609 5614 5620 5627 5632 5633 5630 5626 5622 5618 5616 5615 5619 5620 5620 5622 5618 5607 5607 5604 5606 5599 5586 5584 5587 5582 5586 5585 5573 5581 5577
5534 5536 5540 5543 5545 5548 5553 5556 5562 5571 5581 5594 5600 5603 5609 5614 5617 5617 5617 5615 5611 5607 5605 5602 5600 5601 5602 5603 5608 5601 5594 5594 5590 5564 5574 5571 5568 5570 5573 5569 5569 5568 5564
5525 5526 5530 5532 5532 5536 5540 5546 5552 5561 5572 5585 5587 5590 5597 5599 5600 5603 5606 5602 5599 5599 5596 5589 5585 5584 5588 5587 5586 5587 5587 5582 5575 5561 5569 5558 5559 5559 5559 5562 5564 5559 5553
5514 5518 5520 5523 5524 5526 5532 5538 5544 5551 5563 5570 5572 5575 5576 5580 5587 5591 5590 5587 5584 5582 5578 5574 5571 5568 5566 5571 5571 5565 5575 5568 5569 5568 5555 5551 5553 5556 5556 5558 5554 5548 5543
5510 5511 5511 5514 5516 5518 5525 5529 5533 5541 5551 5552 5555 5560 5564 5566 5576 5581 5578 5574 5572 5567 5564 5563 5558 5555 5550 5555 5564 5554 5556 5556 5555 5553 5555 5554 5554 5556 5554 5551 5548 5544 5536
5500 5502 5505 5507 5509 5513 5519 5521 5527 5529 5535 5539 5544 5549 5554 5555 5563 5569 5572 5565 5560 5557 5553 5551 5549 5550 5552 5555 5555 5549 5543 5539 5541 5546 5551 5551 5551 5552 5548 5541 5538 5538 5525
5492 5497 5501 5503 5506 5509 5513 5518 5519 5520 5522 5526 5531 5536 5543 5546 5547 5557 5560 5556 5552 5546 5541 5542 5542 5547 5544 5546 5543 5542 5539 5530 5534 5540 5543 5543 5545 5542 5540 5532 5531 5526 5512
5486 5492 5498 5500 5503 5506 5511 5513 5515 5515 5516 5517 5520 5524 5531 5532 5535 5544 5544 5544 5543 5539 5533 5532 5534 5537 5535 5536 5536 5531 5538 5530 5524 5533 5535 5537 5532 5531 5528 5523 5521 5514 5502
5486 5492 5496 5501 5504 5509 5507 5507 5511 5512 5511 5507 5511 5514 5512 5518 5527 5530 5534 5534 5532 5529 5522 5519 5521 5528 5528 5530 5528 5527 5534 5526 5517 5527 5535 5519 5519 5521 5515 5508 5506 5502 5497
5487 5493 5498 5501 5506 5501 5502 5504 5505 5507 5505 5504 5511 5507 5506 5511 5514 5517 5521 5523 5518 5517 5522 5512 5513 5517 5524 5523 5523 5525 5527 5521 5510 5528 5516 5509 5511 5508 5504 5499 5498 5494 5486
5492 5497 5502 5504 5498 5496 5496 5500 5503 5504 5507 5506 5504 5502 5503 5505 5506 5507 5512 5511 5509 5513 5507 5505 5507 5510 5514 5512 5518 5517 5514 5514 5515 5507 5503 5506 5504 5500 5497 5489 5488 5483 5467
5501 5500 5498 5493 5490 5489 5491 5494 5498 5499 5505 5507 5502 5504 5505 5503 5499 5501 5503 5503 5508 5504 5500 5502 5503 5506 5505 5506 5512 5510 5508 5505 5505 5500 5500 5497 5492 5492 5487 5479 5473 5463 5451
5494 5493 5491 5491 5490 5490 5491 5487 5485 5490 5493 5496 5500 5503 5501 5500 5497 5497 5495 5499 5499 5497 5499 5500 5499 5500 5503 5504 5503 5501 5498 5499 5495 5495 5490 5487 5486 5480 5471 5461 5457 5450 5440
5491 5488 5487 5489 5489 5488 5488 5488 5485 5478 5483 5486 5489 5491 5491 5492 5491 5491 5496 5496 5497 5497 5497 5497 5498 5499 5498 5496 5494 5492 5490 5490 5489 5484 5481 5476 5475 5467 5451 5450 5445 5442 5436
5489 5488 5489 5488 5490 5490 5491 5488 5487 5483 5479 5474 5475 5480 5482 5485 5486 5488 5492 5495 5497 5494 5496 5494 5492 5491 5491 5490 5486 5486 5483 5484 5479 5473 5472 5464 5454 5448 5445 5439 5435 5436 5432
5489 5487 5487 5488 5487 5488 5484 5478 5481 5480 5476 5475 5473 5475 5478 5483 5488 5491 5490 5493 5494 5494 5495 5491 5487 5484 5483 5480 5477 5471 5469 5476 5474 5462 5452 5444 5442 5442 5437 5433 5431 5427 5425
5485 5485 5488 5487 5483 5480 5478 5479 5481 5479 5477 5476 5476 5478 5481 5486 5485 5485 5486 5490 5493 5490 5487 5482 5478 5474 5472 5470 5470 5469 5467 5460 5452 5442 5438 5440 5440 5433 5430 5425 5421 5420 5418
5484 5481 5485 5485 5481 5479 5479 5478 5478 5478 5477 5475 5474 5475 5478 5483 5484 5484 5485 5486 5486 5482 5478 5473 5468 5466 5465 5463 5459 5454 5450 5443 5437 5436 5435 5429 5426 5425 5422 5421 5416 5413 5412
5482 5480 5479 5480 5479 5478 5479 5479 5477 5476 5476 5477 5475 5477 5479 5482 5481 5482 5481 5479 5476 5472 5468 5467 5462 5458 5456 5453 5447 5442 5438 5434 5431 5427 5424 5422 5421 5418 5415 5411 5407 5404 5403
5483 5483 5478 5477 5479 5479 5478 5475 5473 5473 5476 5480 5483 5482 5480 5479 5478 5476 5473 5471 5469 5465 5461 5458 5453 5447 5443 5440 5438 5435 5430 5426 5423 5420 5416 5414 5412 5409 5404 5400 5397 5397 5396
5485 5486 5486 5485 5483 5482 5481 5479 5480 5482 5484 5482 5480 5480 5478 5476 5474 5471 5467 5462 5459 5454 5450 5445 5442 5439 5437 5436 5432 5428 5424 5420 5415 5412 5412 5409 5404 5400 5396 5392 5391 5393 5392
5490 5489 5489 5489 5490 5490 5488 5488 5486 5484 5484 5483 5482 5479 5476 5473 5468 5464 5459 5455 5450 5446 5441 5437 5435 5434 5431 5426 5422 5420 5416 5412 5409 5408 5406 5402 5397 5392 5389 5387 5388 5388 5389
5495 5493 5495 5495 5494 5492 5491 5490 5489 5487 5486 5483 5479 5476 5472 5466 5460 5455 5450 5447 5442 5438 5434 5432 5429 5426 5422 5418 5414 5410 5406 5403 5402 5400 5398 5396 5392 5389 5386 5385 5384 5383 5383